Location: Engelmannsreuth
(49.8125°N, 11.6497°E)
Time: 10:00:04
(UTC+00:00)

NOAA 6 - Pass Details

Date: 17 February 2020
Orbit: 771 x 788 km, 98.7° (Epoch: 04 April)

Event Time Altitude Azimuth Distance (km) Brightness Sun altitude
Rises 05:33:54 0° 11° (NNE) 3,293 7.3 -8.2°
Reaches altitude 10° 05:36:15 10° 8° (N) 2,359 6.5 -7.9°
Maximum altitude 05:41:21 58° 291° (WNW) 916 4.1 -7.0°
Drops below altitude 10° 05:46:24 10° 213° (SSW) 2,333 6.3 -6.2°
Sets 05:48:43 0° 210° (SSW) 3,254 7.1 -5.9°
